Terminal Aerodrome Forecast
Issued by NWS Birmingham, AL

Home | Current Version | Previous Version | Text Only | Print | Product List | Glossary On
Versions: 1 2 3 4 5 6 7 8 9 10 11 12 13
000
FTUS44 KBMX 032331
TAFBHM
TAF
KBHM 032331Z 0400/0424 36007KT P6SM BKN250
     FM040200 00000KT P6SM SKC
     FM041500 02005KT P6SM SKC=

USA.gov is the U.S. government's official web portal to all federal, state and local government web resources and services.